| time (UTC) | temp F | wind direction | speed knots | gust knots | rain 1hr in | rain 24hr in | rain mn in | humidity % | barometer mb |
| 20260509153540 | 62 | 227 | 0.9 | 3.5 | 0.00 | 0.30 | 0.30 | 84 | 1010.3 |
| 20260509152520 | 62 | 231 | 0.0 | 3.5 | 0.00 | 0.30 | 0.30 | 85 | 1010.4 |
| 20260509151515 | 61 | 212 | 0.9 | 3.5 | 0.00 | 0.30 | 0.30 | 87 | 1010.5 |
| 20260509150521 | 60 | 211 | 0.0 | 4.3 | 0.00 | 0.30 | 0.30 | 88 | 1010.2 |
| 20260509145521 | 60 | 209 | 0.0 | 3.5 | 0.00 | 0.30 | 0.30 | 88 | 1010.2 |
| 20260509144541 | 59 | 208 | 0.0 | 3.5 | 0.00 | 0.30 | 0.30 | 88 | 1010.1 |
| 20260509143520 | 60 | 215 | 0.9 | 3.5 | 0.00 | 0.30 | 0.30 | 88 | 1010.1 |
| 20260509142541 | 60 | 218 | 0.0 | 3.5 | 0.00 | 0.30 | 0.30 | 89 | 1009.8 |
| 20260509141516 | 59 | 248 | 0.0 | 3.5 | 0.00 | 0.30 | 0.30 | 91 | 1009.7 |
| 20260509140516 | 59 | 250 | 0.0 | 3.5 | 0.00 | 0.30 | 0.30 | 91 | 1009.6 |
| 20260509135541 | 58 | 263 | 0.0 | 2.6 | 0.00 | 0.30 | 0.30 | 91 | 1009.4 |
| 20260509134521 | 58 | 284 | 0.0 | 2.6 | 0.00 | 0.30 | 0.30 | 91 | 1009.4 |
| 20260509133520 | 58 | 0.0 | 1.7 | 0.00 | 0.30 | 0.30 | 91 | 1009.4 | |
| 20260509132520 | 58 | 288 | 0.0 | 1.7 | 0.00 | 0.30 | 0.30 | 91 | 1009.4 |
| 20260509131521 | 58 | 288 | 0.0 | 1.7 | 0.00 | 0.30 | 0.30 | 91 | 1009.5 |
| 20260509130515 | 58 | 290 | 0.0 | 2.6 | 0.00 | 0.30 | 0.30 | 92 | 1009.5 |
| 20260509125520 | 58 | 300 | 0.0 | 2.6 | 0.00 | 0.30 | 0.30 | 92 | 1009.6 |
| 20260509124520 | 58 | 318 | 0.9 | 3.5 | 0.00 | 0.30 | 0.30 | 92 | 1009.5 |
| 20260509123520 | 58 | 5 | 0.0 | 1.7 | 0.00 | 0.30 | 0.30 | 93 | 1009.3 |
| 20260509122521 | 57 | 0.0 | 1.7 | 0.00 | 0.30 | 0.30 | 93 | 1009.3 | |
| 20260509121600 | 57 | 0.0 | 0.0 | 0.00 | 0.30 | 0.30 | 94 | 1009.1 | |
| 20260509120520 | 57 | 0.0 | 0.0 | 0.00 | 0.30 | 0.30 | 94 | 1008.9 | |
| 20260509115515 | 57 | 0.0 | 0.0 | 0.00 | 0.30 | 0.30 | 94 | 1008.8 | |
| 20260509114520 | 57 | 0.0 | 0.0 | 0.00 | 0.30 | 0.30 | 94 | 1008.8 | |
| 20260509113520 | 57 | 0.0 | 0.0 | 0.00 | 0.30 | 0.30 | 94 | 1008.8 | |
| 20260509112601 | 56 | 0.0 | 0.0 | 0.00 | 0.30 | 0.30 | 94 | 1008.8 | |
| 20260509111521 | 56 | 0.0 | 0.0 | 0.00 | 0.30 | 0.30 | 94 | 1008.9 | |
| 20260509110520 | 56 | 0.0 | 0.0 | 0.00 | 0.30 | 0.30 | 94 | 1008.9 | |
| 20260509105515 | 56 | 0.0 | 0.0 | 0.00 | 0.30 | 0.30 | 94 | 1008.7 | |
| 20260509104515 | 56 | 11 | 0.0 | 1.7 | 0.00 | 0.30 | 0.30 | 94 | 1008.7 |
| 20260509103541 | 56 | 10 | 0.0 | 1.7 | 0.00 | 0.30 | 0.30 | 94 | 1008.6 |
| 20260509102540 | 56 | 28 | 0.0 | 1.7 | 0.00 | 0.30 | 0.30 | 94 | 1008.6 |
| 20260509101520 | 56 | 0.0 | 0.0 | 0.00 | 0.30 | 0.30 | 94 | 1008.5 | |
| 20260509100520 | 56 | 0.0 | 1.7 | 0.00 | 0.30 | 0.30 | 94 | 1008.6 | |
| 20260509095520 | 56 | 0.0 | 0.9 | 0.00 | 0.30 | 0.30 | 94 | 1008.7 | |
| 20260509094515 | 56 | 0.0 | 0.0 | 0.00 | 0.30 | 0.30 | 94 | 1008.3 | |
| 20260509093520 | 56 | 0.0 | 0.0 | 0.00 | 0.30 | 0.30 | 93 | 1008.2 | |
| 20260509092520 | 55 | 0.0 | 0.0 | 0.00 | 0.30 | 0.30 | 93 | 1008.1 | |
| 20260509091520 | 55 | 0.0 | 0.0 | 0.00 | 0.30 | 0.30 | 93 | 1007.9 | |
| 20260509090520 | 55 | 0.0 | 0.0 | 0.00 | 0.30 | 0.30 | 93 | 1008.0 | |
| 20260509085520 | 56 | 0.0 | 0.0 | 0.01 | 0.30 | 0.30 | 93 | 1007.8 | |
| 20260509084520 | 56 | 0.0 | 0.0 | 0.01 | 0.30 | 0.30 | 93 | 1007.9 | |
| 20260509083515 | 56 | 28 | 0.0 | 0.9 | 0.01 | 0.30 | 0.30 | 93 | 1007.7 |
| 20260509082520 | 57 | 0.0 | 0.0 | 0.01 | 0.30 | 0.30 | 93 | 1007.8 | |
| 20260509081520 | 57 | 0.0 | 1.7 | 0.04 | 0.30 | 0.30 | 93 | 1007.7 | |
| 20260509080541 | 57 | 0.0 | 0.0 | 0.06 | 0.30 | 0.30 | 92 | 1007.8 | |
| 20260509075520 | 57 | 0.0 | 0.0 | 0.06 | 0.29 | 0.28 | 92 | 1007.7 | |
| 20260509074521 | 57 | 0.0 | 0.0 | 0.12 | 0.29 | 0.28 | 92 | 1007.7 | |
| 20260509073516 | 57 | 0.0 | 0.0 | 0.15 | 0.29 | 0.28 | 92 | 1007.8 | |
| 20260509072516 | 57 | 28 | 0.0 | 1.7 | 0.19 | 0.29 | 0.28 | 92 | 1008.0 |
| 20260509071520 | 57 | 18 | 0.0 | 2.6 | 0.23 | 0.26 | 0.26 | 92 | 1007.4 |
| 20260509070520 | 57 | 323 | 0.0 | 1.7 | 0.24 | 0.24 | 0.24 | 91 | 1007.8 |
| 20260509065520 | 57 | 0.0 | 0.0 | 0.21 | 0.21 | 0.22 | 91 | 1008.6 | |
| 20260509064520 | 57 | 0.0 | 1.7 | 0.17 | 0.17 | 0.17 | 91 | 1008.9 | |
| 20260509063520 | 57 | 322 | 0.0 | 1.7 | 0.13 | 0.13 | 0.13 | 90 | 1009.1 |
| 20260509062522 | 57 | 321 | 0.0 | 2.6 | 0.10 | 0.10 | 0.10 | 89 | 1009.3 |
| 20260509061520 | 58 | 327 | 0.0 | 2.6 | 0.03 | 0.03 | 0.03 | 88 | 1009.3 |
| 20260509060520 | 58 | 335 | 0.0 | 2.6 | 0.00 | 0.00 | 0.00 | 86 | 1009.5 |
| 20260509055520 | 59 | 336 | 0.0 | 1.7 | 0.00 | 0.00 | 0.00 | 84 | 1009.5 |
| 20260509054520 | 59 | 336 | 0.9 | 6.1 | 0.00 | 0.00 | 0.00 | 83 | 1010.0 |
| 20260509053517 | 60 | 331 | 0.9 | 8.7 | 0.00 | 0.00 | 0.00 | 82 | 1009.9 |
| 20260509052520 | 60 | 332 | 0.9 | 7.0 | 0.00 | 0.00 | 0.00 | 82 | 1009.4 |
| 20260509051523 | 61 | 334 | 0.9 | 5.2 | 0.00 | 0.00 | 0.00 | 82 | 1009.5 |
| 20260509050522 | 61 | 344 | 0.9 | 7.0 | 0.00 | 0.00 | 0.00 | 80 | 1009.1 |
| 20260509045515 | 62 | 332 | 2.6 | 7.0 | 0.00 | 0.00 | 0.00 | 78 | 1009.0 |
| 20260509044521 | 63 | 315 | 0.9 | 2.6 | 0.00 | 0.00 | 0.00 | 73 | 1008.7 |
| 20260509043521 | 63 | 309 | 0.0 | 1.7 | 0.00 | 0.00 | 0.00 | 69 | 1008.4 |
| 20260509042541 | 64 | 309 | 0.0 | 2.6 | 0.00 | 0.00 | 0.00 | 66 | 1008.4 |
| 20260509041521 | 63 | 308 | 0.0 | 2.6 | 0.00 | 0.00 | 0.00 | 68 | 1008.2 |
| 20260509040521 | 63 | 187 | 0.9 | 3.5 | 0.00 | 0.00 | 0.00 | 66 | 1008.3 |
| 20260509035516 | 64 | 0.0 | 2.6 | 0.00 | 0.00 | 0.00 | 64 | 1008.0 | |
| 20260509034516 | 63 | 165 | 0.0 | 1.7 | 0.00 | 0.00 | 0.00 | 65 | 1007.9 |
| 20260509033521 | 63 | 165 | 0.0 | 1.7 | 0.00 | 0.00 | 0.00 | 66 | 1007.8 |
| 20260509032521 | 64 | 165 | 0.0 | 1.7 | 0.00 | 0.00 | 0.00 | 67 | 1007.9 |
| 20260509031521 | 64 | 165 | 0.0 | 1.7 | 0.00 | 0.00 | 0.00 | 65 | 1008.1 |
| 20260509030539 | 65 | 165 | 0.0 | 1.7 | 0.00 | 0.00 | 0.00 | 63 | 1008.3 |
| 20260509025521 | 65 | 165 | 0.0 | 3.5 | 0.00 | 0.00 | 0.00 | 63 | 1008.5 |
| 20260509024516 | 65 | 165 | 0.0 | 2.6 | 0.00 | 0.00 | 0.00 | 64 | 1008.4 |
| 20260509023521 | 64 | 163 | 0.0 | 2.6 | 0.00 | 0.00 | 0.00 | 65 | 1008.3 |
| 20260509022521 | 64 | 160 | 0.0 | 1.7 | 0.00 | 0.00 | 0.00 | 66 | 1008.2 |
| 20260509021521 | 63 | 0.0 | 0.0 | 0.00 | 0.00 | 0.00 | 70 | 1008.1 | |
| 20260509020521 | 62 | 0.0 | 0.0 | 0.00 | 0.00 | 0.00 | 73 | 1008.0 | |
| 20260509015521 | 63 | 0.0 | 0.0 | 0.00 | 0.00 | 0.00 | 70 | 1007.8 | |
| 20260509014521 | 64 | 0.0 | 0.0 | 0.00 | 0.00 | 0.00 | 68 | 1007.9 | |
| 20260509013516 | 65 | 0.0 | 0.0 | 0.00 | 0.00 | 0.00 | 64 | 1007.9 | |
| 20260509012521 | 65 | 160 | 0.0 | 1.7 | 0.00 | 0.00 | 0.00 | 63 | 1007.7 |
| 20260509011521 | 66 | 159 | 0.0 | 3.5 | 0.00 | 0.00 | 0.00 | 61 | 1007.7 |
| 20260509010521 | 67 | 169 | 0.0 | 1.7 | 0.00 | 0.00 | 0.00 | 59 | 1007.9 |
| 20260509005521 | 67 | 169 | 0.0 | 1.7 | 0.00 | 0.00 | 0.00 | 59 | 1007.9 |
| 20260509004521 | 68 | 167 | 0.9 | 3.5 | 0.00 | 0.00 | 0.00 | 57 | 1007.9 |
| 20260509003515 | 68 | 169 | 0.9 | 5.2 | 0.00 | 0.00 | 0.00 | 57 | 1007.9 |
| 20260509002521 | 69 | 183 | 0.9 | 3.5 | 0.00 | 0.00 | 0.00 | 56 | 1008.0 |
| 20260509001521 | 69 | 192 | 0.0 | 1.7 | 0.00 | 0.00 | 0.00 | 57 | 1007.8 |
| 20260509000521 | 69 | 171 | 0.0 | 1.7 | 0.00 | 0.00 | 0.00 | 58 | 1008.0 |
| 20260508235521 | 70 | 175 | 0.9 | 5.2 | 0.00 | 0.00 | 0.00 | 56 | 1008.1 |
| 20260508234521 | 70 | 165 | 0.9 | 4.3 | 0.00 | 0.00 | 0.00 | 56 | 1008.2 |
| 20260508233521 | 71 | 190 | 0.9 | 5.2 | 0.00 | 0.00 | 0.00 | 55 | 1008.4 |
| 20260508232516 | 71 | 177 | 0.0 | 1.7 | 0.00 | 0.00 | 0.00 | 57 | 1008.6 |
| 20260508231541 | 71 | 184 | 0.9 | 4.3 | 0.00 | 0.00 | 0.00 | 56 | 1008.6 |
| 20260508230521 | 72 | 181 | 0.9 | 6.1 | 0.00 | 0.00 | 0.00 | 53 | 1008.6 |
| 20260508225521 | 71 | 175 | 1.7 | 9.6 | 0.00 | 0.00 | 0.00 | 53 | 1008.6 |
| 20260508224541 | 72 | 178 | 1.7 | 8.7 | 0.00 | 0.00 | 0.00 | 54 | 1008.7 |
| 20260508223521 | 72 | 194 | 2.6 | 6.1 | 0.00 | 0.00 | 0.00 | 53 | 1008.7 |
| 20260508222516 | 73 | 186 | 2.6 | 7.0 | 0.00 | 0.00 | 0.00 | 52 | 1008.8 |
| 20260508221516 | 72 | 179 | 2.6 | 8.7 | 0.00 | 0.00 | 0.00 | 52 | 1008.9 |
| 20260508220521 | 73 | 195 | 2.6 | 9.6 | 0.00 | 0.00 | 0.00 | 53 | 1008.9 |
| 20260508215521 | 74 | 191 | 3.5 | 11.3 | 0.00 | 0.00 | 0.00 | 50 | 1008.7 |
| 20260508214521 | 74 | 183 | 2.6 | 9.6 | 0.00 | 0.00 | 0.00 | 51 | 1008.8 |
| 20260508213519 | 74 | 188 | 2.6 | 8.7 | 0.00 | 0.00 | 0.00 | 49 | 1008.9 |
| 20260508212521 | 74 | 183 | 3.5 | 10.4 | 0.00 | 0.00 | 0.00 | 48 | 1008.9 |
| 20260508211516 | 74 | 207 | 3.5 | 11.3 | 0.00 | 0.00 | 0.00 | 50 | 1008.9 |
| 20260508210521 | 74 | 188 | 4.3 | 11.3 | 0.00 | 0.00 | 0.00 | 50 | 1009.0 |
| 20260508205541 | 74 | 194 | 5.2 | 12.2 | 0.00 | 0.00 | 0.00 | 46 | 1009.2 |
| 20260508204601 | 74 | 201 | 4.3 | 10.4 | 0.00 | 0.00 | 0.00 | 51 | 1009.3 |
| 20260508203521 | 75 | 210 | 5.2 | 15.6 | 0.00 | 0.00 | 0.00 | 48 | 1009.3 |
| 20260508202521 | 74 | 204 | 5.2 | 10.4 | 0.00 | 0.00 | 0.00 | 52 | 1009.6 |
| 20260508201516 | 74 | 191 | 4.3 | 8.7 | 0.00 | 0.00 | 0.00 | 49 | 1009.5 |
| 20260508200515 | 74 | 194 | 1.7 | 9.6 | 0.00 | 0.00 | 0.00 | 52 | 1009.6 |
| 20260508195541 | 75 | 186 | 2.6 | 10.4 | 0.00 | 0.00 | 0.00 | 52 | 1009.7 |
| 20260508194621 | 74 | 195 | 5.2 | 12.2 | 0.00 | 0.00 | 0.00 | 48 | 1009.9 |
| 20260508193520 | 74 | 190 | 4.3 | 11.3 | 0.00 | 0.00 | 0.00 | 50 | 1010.1 |
| 20260508192521 | 74 | 196 | 5.2 | 11.3 | 0.00 | 0.00 | 0.00 | 50 | 1010.3 |
| 20260508191521 | 74 | 189 | 3.5 | 7.8 | 0.00 | 0.00 | 0.00 | 51 | 1010.5 |
| 20260508190516 | 74 | 194 | 3.5 | 12.2 | 0.00 | 0.00 | 0.00 | 54 | 1010.7 |
| 20260508185521 | 73 | 175 | 3.5 | 10.4 | 0.00 | 0.00 | 0.00 | 51 | 1010.9 |
| 20260508184521 | 74 | 196 | 2.6 | 8.7 | 0.00 | 0.00 | 0.00 | 52 | 1011.0 |
| 20260508183521 | 73 | 185 | 2.6 | 11.3 | 0.00 | 0.00 | 0.00 | 57 | 1011.2 |
| 20260508182541 | 72 | 178 | 2.6 | 7.8 | 0.00 | 0.00 | 0.00 | 51 | 1011.1 |
| 20260508181521 | 73 | 197 | 1.7 | 8.7 | 0.00 | 0.00 | 0.00 | 54 | 1011.3 |
| 20260508180541 | 72 | 165 | 1.7 | 8.7 | 0.00 | 0.00 | 0.00 | 56 | 1011.4 |
| 20260508175515 | 72 | 181 | 2.6 | 10.4 | 0.00 | 0.00 | 0.00 | 54 | 1011.6 |
| 20260508174521 | 71 | 171 | 1.7 | 7.8 | 0.00 | 0.00 | 0.00 | 56 | 1011.8 |
| 20260508173520 | 71 | 173 | 3.5 | 10.4 | 0.00 | 0.00 | 0.00 | 56 | 1012.1 |
| 20260508172521 | 71 | 182 | 2.6 | 9.6 | 0.00 | 0.00 | 0.00 | 55 | 1012.3 |
| 20260508171521 | 72 | 193 | 2.6 | 9.6 | 0.00 | 0.00 | 0.00 | 57 | 1012.4 |
| 20260508170521 | 71 | 208 | 3.5 | 7.8 | 0.00 | 0.00 | 0.00 | 57 | 1012.6 |
| 20260508165516 | 70 | 187 | 1.7 | 8.7 | 0.00 | 0.00 | 0.00 | 57 | 1012.7 |
| 20260508164516 | 70 | 189 | 2.6 | 9.6 | 0.00 | 0.00 | 0.00 | 55 | 1013.0 |
| 20260508163541 | 69 | 193 | 2.6 | 11.3 | 0.00 | 0.00 | 0.00 | 58 | 1013.1 |
| 20260508162520 | 68 | 190 | 3.5 | 8.7 | 0.00 | 0.00 | 0.00 | 56 | 1013.2 |
| 20260508161521 | 68 | 190 | 2.6 | 9.6 | 0.00 | 0.00 | 0.00 | 60 | 1013.3 |
| 20260508160519 | 67 | 182 | 1.7 | 7.8 | 0.00 | 0.00 | 0.00 | 58 | 1013.2 |
| 20260508155521 | 67 | 192 | 3.5 | 7.8 | 0.00 | 0.00 | 0.00 | 56 | 1013.5 |
| 20260508154536 | 66 | 188 | 3.5 | 12.2 | 0.00 | 0.00 | 0.00 | 60 | 1013.6 |